Regional Weather Roundup
Issued by NWS

Home | Current Version | Previous Version | Graphics & Text | Print | Product List | Glossary On
Versions: 1 2 3 4 5 6 7 8 9 10 11 12 13 14 15 16 17 18 19 20 21 22 23 24 25 26 27 28 29 30 31 32 33 34 35 36 37 38 39 40 41 42 43 44 45 46 47 48 49 50
000
ASUS45 KCYS 211010
RWRWY

WYOMING REGIONAL WEATHER ROUNDUP
NATIONAL WEATHER SERVICE CHEYENNE WY
400 AM MDT TUE OCT 21 2014

NOTE:  "FAIR" INDICATES FEW OR NO CLOUDS BELOW 12,000 FEET
WITH NO SIGNIFICANT WEATHER AND/OR OBSTRUCTIONS TO VISIBILITY.

WYZ001-211100-
YELLOWSTONE NATIONAL PARK

CITY           SKY/WX    TMP DP  RH WIND       PRES   REMARKS
LK YELLOWSTONE   N/A     29  27  92 NW3       30.02F
W YELLOWSTONE  NOT AVBL

$$
WYZ002>013-054>058-071-098>099-211100-
NORTHERN WYOMING

CITY           SKY/WX    TMP DP  RH WIND       PRES   REMARKS
JACKSON        PTCLDY    34  28  80 N7        29.97F WCI  28
CODY           CLEAR    N/A N/A N/A S8        29.85F
GREYBULL       CLEAR     39  29  67 VRB3      29.83F
WORLAND        CLEAR     39  29  67 CALM      29.84F
SHERIDAN       CLEAR     38  30  73 CALM      29.80F
BUFFALO        CLEAR     50  26  39 CALM      29.86F
GILLETTE       CLEAR     59  33  37 S21G30    29.83F
HULETT         FAIR      64  34  32 S16G23    29.86
NEWCASTLE      FAIR      55  34  44 SE9       29.91

$$
WYZ014>020-022>026-101>103-211100-
CENTRAL WYOMING

CITY           SKY/WX    TMP DP  RH WIND       PRES   REMARKS
BIG PINEY      PTCLDY    31  25  78 E5        30.04F WCI  26
PINEDALE       MOSUNNY   32  30  93 W3        30.05F
DUBOIS         FAIR      37  28  70 NW9       30.00F WCI  31
LANDER         CLEAR     48  32  53 W6        29.92F
RIVERTON       CLEAR     41  28  60 NW7       29.93F
CASPER         CLEAR     47  35  63 SW8       29.96S
DOUGLAS        CLEAR     44  34  67 CALM      29.97F

$$
WYZ021-027>030-104>119-211100-
SOUTHERN WYOMING

CITY           SKY/WX    TMP DP  RH WIND       PRES   REMARKS
EVANSTON       PTCLDY    48  34  58 S7        30.04F
KEMMERER       SUNNY     39  32  75 SE3       30.05S
FORT BRIDGER   FAIR      51  34  51 W3        30.06F
ROCK SPRINGS   CLEAR     50  34  54 SW9       30.04F
RAWLINS        CLEAR     46  34  62 SW3       30.08F
SARATOGA       FAIR      45  32  61 SE10      30.11F
LARAMIE        CLEAR     37  31  78 S10       30.12F WCI  30
CHEYENNE       CLEAR     46  34  62 W13       30.05F
TORRINGTON     CLEAR     44  36  73 SE6       29.95F
PINE BLUFFS    FAIR      37  34  87 W3        30.02F

$$



USA.gov is the U.S. government's official web portal to all federal, state and local government web resources and services.